Regional Weather Roundup
Issued by NWS Northern Indiana

Home | Current Version | Previous Version | Text Only | Print | Product List | Glossary Off
Versions: 1 2 3 4 5 6 7 8 9 10 11 12 13 14 15 16 17 18 19 20 21 22 23 24 25 26 27 28 29 30 31 32 33 34 35 36 37 38 39 40 41 42 43 44 45 46 47 48 49 50

000
ASUS43 KIWX 080110
RWRIWX

KIWX WEATHER ROUNDUP
NATIONAL WEATHER SERVICE NORTHERN INDIANA
800 PM EST WED DEC 07 2016

NOTE: "FAIR" INDICATES FEW OR NO CLOUDS BELOW 12,000 FEET WITH NO
SIGNIFICANT WEATHER AND/OR OBSTRUCTIONS TO VISIBILITY.

* THESE STATIONS ARE NOT UNDER NWS QUALITY CONTROL. THEY ALSO MAY NOT
  REPORT WEATHER SUCH AS PRECIPITATION OR FOG.

INZ001>027-080200-
NORTHERN INDIANA

CITY           SKY/WX    TMP DP  RH WIND       PRES   REMARKS
GARY*          CLEAR     28  19  69 W17G33    30.15R WCI  16
VALPARAISO     PTCLDY    27  20  75 W12       30.14R WCI  17
MICHIGAN CITY* MOCLDY    28  19  69 W10G20    30.13S WCI  19
LAPORTE*       CLEAR     26  20  79 W13G18    30.13R WCI  15
KNOX*          PTCLDY    28   5  37 W17       30.13S WCI  16
SOUTH BEND     PTCLDY    26  19  74 W17       30.11R WCI  13
ELKHART*       PTCLDY    28  19  69 W15       30.09S WCI  17
GOSHEN         MOCLDY    28  21  75 W15       30.10S WCI  16
MONTICELLO*    CLEAR     29  21  71 W8        30.15S WCI  21
LOGANSPORT*    CLEAR     30  23  74 W13       30.15S WCI  20
ROCHESTER*     CLEAR     32  27  80 W10G17    30.13R WCI  24
WARSAW*        PTCLDY    28  21  74 W15       30.10F WCI  17
ANGOLA*        PTCLDY    28  18  64 W10       30.06S WCI  19
FORT WAYNE     MOCLDY    31  24  75 W13       30.10S WCI  21
HUNTINGTON*    MOCLDY    30  23  77 W13G18    30.11S WCI  20
PERU/GRISSOM   PTCLDY    29  25  85 W12       30.12S WCI  19
MARION*        MOCLDY    31  26  82 W9        30.14S WCI  23

$$
INZ028>050-080200-
CENTRAL INDIANA

CITY           SKY/WX    TMP DP  RH WIND       PRES   REMARKS
LAFAYETTE      PTCLDY    29  23  78 W9        30.17S WCI  20
KOKOMO*        PTCLDY    30  25  81 W18       30.15R WCI  18
MUNCIE*        CLOUDY    33  24  69 W12       30.12F WCI  24
INDIANAPOLIS   CLOUDY    32  22  66 W13       30.17S WCI  22

$$
MIZ043>046-050>051-056>058-064>065-071>073-077>080-080200-
SOUTHWEST LOWER MICHIGAN

CITY           SKY/WX    TMP DP  RH WIND       PRES   REMARKS
BATTLE CREEK   MOCLDY    30  22  72 SW15      30.04S WCI  19
BENTON HARBOR  CLOUDY    31  21  66 W21G26    30.09R WCI  18
COLDWATER*     PTCLDY    28  21  75 W15       30.06S WCI  17
HILLSDALE*     CLOUDY    28  23  80 W13G20    30.03S WCI  18
HOLLAND        CLOUDY    32  23  69 W17G31    30.04R WCI  21
GRAND RAPIDS   CLOUDY    32  23  69 W18       30.02R WCI  20
KALAMAZOO      CLOUDY    30  21  69 SW16G25   30.06R WCI  19
STURGIS*       MOCLDY    27  21  77 W13       30.07R WCI  17
THREE RIVERS*  CLOUDY    28  22  75 SW7       30.08S WCI  21

$$
OHZ001>008-015>018-024>025-080200-
NORTHWEST OHIO

CITY           SKY/WX    TMP DP  RH WIND       PRES   REMARKS
WAUSEON*       CLOUDY    30  25  80 W15G22    30.06S WCI  19
DEFIANCE       PTCLDY    32  23  69 W9        30.09S WCI  24
FINDLAY        CLOUDY    33  24  69 W12       30.07F WCI  24
TOLEDO EXPRESS CLOUDY    31  25  78 SW15      30.06F WCI  20
TOLEDO METCALF CLOUDY    33  25  72 W10       30.07F WCI  25
LIMA           CLOUDY    32  26  78 W12       30.08F WCI  23

$$
AND FOR LAKE MICHIGAN COASTAL AND OPEN LAKE BUOY OBSERVATIONS

STATION/POSITION TEMP    WIND        PRES    VSBY  WAVE
                 AIR SEA DIR/SP/G                  HT/PER
                 (F)     (DEG/KT/KT) (MB)    (MI)  (FT/S)
CALUMET HARBOR    25     240/  9/ 17 1019.8R
MICHIGAN CITY     29     220/ 34/ 37   N/A
BURNS HARBOR      30     260/ 22/ 29 1020.3S
SAINT JOSEPH      33     250/ 21/ 26 1018.6F

$$
&&




USA.gov is the U.S. government's official web portal to all federal, state and local government web resources and services.